Weather History for Lihue, HI

Change the Weather History Date:

Wednesday, May 22, 2013

  Actual Average Record
Temperature  
Mean Temperature 75 °F 76 °F  
Max Temperature 83 °F 82 °F 86 °F (1992)
Min Temperature 66 °F 71 °F 63 °F (1987)
Degree Days  
Heating Degree Days 0 0  
Month to date heating degree days 0 0  
Since 1 July heating degree days 0 0  
Cooling Degree Days 10 11  
Month to date cooling degree days 200 229  
Year to date cooling degree days 962 1133  
Growing Degree Days 24 (Base 50)    
Moisture  
Dew Point 65 °F    
Average Humidity 78    
Maximum Humidity 93    
Minimum Humidity 62    
Precipitation  
Precipitation 0.00 in 0.06 in 1.42 in (1970)
Month to date precipitation 0.55 1.60  
Year to date precipitation 14.77 15.37  
Snow  
Snow 0.00 in - - ()
Month to date snowfall 0.0  
Since 1 July snowfall 0.0  
Snow Depth 0.00 in    
Sea Level Pressure  
Sea Level Pressure 30.01 in    
Wind  
Wind Speed 8 mph (WNW)    
Max Wind Speed 15 mph    
Max Gust Speed 20 mph    
Visibility 10 miles    
Events      
T = Trace of Precipitation, MM = Missing Value Source: NWS Daily Summary

Daily Weather History Graph

Daily Weather History Graph

Search for Another Location

Airport:

Trip Planner

Search our weather history database for the weather conditions in past years. The results will help you decide how hot, cold, wet, or windy it might be!

Date:

Astronomy

May. 22, 2013 Rise Set
Actual Time 5:55 AM HST 7:12 PM HST
Civil Twilight 5:31 AM HST 7:37 PM HST
Nautical Twilight 5:02 AM HST 8:06 PM HST
Astronomical Twilight 4:32 AM HST 8:36 PM HST
Moon 5:02 PM HST (5/22) 3:49 AM HST (5/22)
Length of Visible Light 14h 06m
Length of Day
13h 17m
Waxing Gibbous, 93% of the Moon is Illuminated
May 22
Waxing Gibbous
May 24
Full
May 31
Last Quarter
Jun 8
New
Jun 16
First Quarter

Hourly Weather History & Observations

Time (HST) Temp. Heat Index Dew Point Humidity Pressure Visibility Wind Dir Wind Speed Gust Speed Precip Events Conditions
12:53 AM 66.0 °F - 63.0 °F 90% 29.99 in 10.0 mi WNW 8.1 mph - N/A   Clear
1:53 AM 66.0 °F - 63.0 °F 90% 29.98 in 10.0 mi West 9.2 mph - N/A   Clear
2:53 AM 66.0 °F - 63.0 °F 90% 29.97 in 10.0 mi West 8.1 mph - N/A   Mostly Cloudy
3:53 AM 66.9 °F - 63.0 °F 87% 29.96 in 10.0 mi West 4.6 mph - N/A   Overcast
4:53 AM 66.9 °F - 63.0 °F 87% 29.96 in 10.0 mi West 5.8 mph - N/A   Mostly Cloudy
5:53 AM 66.0 °F - 62.1 °F 87% 29.97 in 10.0 mi West 6.9 mph - N/A   Clear
6:53 AM 69.1 °F - 63.0 °F 81% 29.98 in 10.0 mi West 5.8 mph - N/A   Clear
7:53 AM 73.9 °F - 64.0 °F 71% 30.00 in 10.0 mi West 3.5 mph - N/A   Clear
8:53 AM 75.9 °F - 64.9 °F 69% 30.01 in 10.0 mi ENE 4.6 mph - N/A   Clear
9:53 AM 78.1 °F - 66.9 °F 68% 30.02 in 10.0 mi East 6.9 mph - N/A   Clear
10:53 AM 80.1 °F 82.3 °F 66.9 °F 64% 30.03 in 10.0 mi ESE 9.2 mph - N/A   Clear
11:09 AM 80.6 °F 82.7 °F 66.2 °F 61% 30.03 in 10.0 mi East 10.4 mph - N/A   Clear
11:53 AM 81.0 °F 83.0 °F 66.0 °F 60% 30.03 in 10.0 mi ESE 10.4 mph - N/A   Clear
12:53 PM 81.0 °F 83.3 °F 66.9 °F 62% 30.01 in 10.0 mi South 10.4 mph - N/A   Clear
1:53 PM 82.9 °F 85.8 °F 68.0 °F 60% 29.99 in 10.0 mi SSE 12.7 mph - N/A   Clear
2:53 PM 80.1 °F 82.3 °F 66.9 °F 64% 29.99 in 10.0 mi East 8.1 mph - N/A   Partly Cloudy
3:53 PM 80.1 °F 82.3 °F 66.9 °F 64% 29.99 in 10.0 mi ENE 5.8 mph - N/A   Clear
4:53 PM 78.1 °F - 66.0 °F 66% 29.98 in 10.0 mi ENE 6.9 mph - N/A   Overcast
5:00 PM 78.8 °F - 66.2 °F 65% 29.99 in 10.0 mi ENE 6.9 mph - N/A   Overcast
5:53 PM 77.0 °F - 66.0 °F 69% 30.00 in 10.0 mi NE 6.9 mph - N/A   Scattered Clouds
6:53 PM 75.0 °F - 66.0 °F 73% 30.02 in 10.0 mi NNW 5.8 mph - N/A   Clear
7:53 PM 73.0 °F - 68.0 °F 84% 30.03 in 10.0 mi NW 4.6 mph - N/A   Clear
8:53 PM 72.0 °F - 66.9 °F 84% 30.05 in 10.0 mi West 5.8 mph - N/A   Clear
9:53 PM 71.1 °F - 66.9 °F 87% 30.06 in 10.0 mi WNW 5.8 mph - N/A   Overcast
10:53 PM 70.0 °F - 66.0 °F 87% 30.07 in 10.0 mi West 6.9 mph - N/A   Clear
11:53 PM 70.0 °F - 66.0 °F 87% 30.06 in 10.0 mi West 6.9 mph - N/A   Scattered Clouds